Погода в Беылагане

Погода в Беылагане : погода сейчас, прогноз погоды и архив. Всё, что Вы хотите узнать о погоде в Беылагане!

Поиск расширенной информации на нашем сайте:

Другие новости

Новости СМИ2

Главная страница сайта

Новости сайта

03.07.2017

Напоминаем, что на нашем специализированном сайте Метеоцентр.Азия вы можете получить высокодетализированные автоматические прогнозы погоды по пунктам России, СНГ и мира в авиационном формате (включающие направление и скорость ветра, видимость, явления погоды, количество и форму облачности, нижнюю и верхнюю границу облачности).

Рекомендуем: камазовские запчасти

Погода в Беылагане - сегодня

Время (UTC), дата Ветер
(°,м/с) 
Видим.   Явления Облачность Т
(°С)
Тd
(°С)
f(%) Тe
(°С)
Pmin
(гПа)
dP
(гПа)
Po
(мм)
O2
(г/м3)
Тmin Tmax R s Состояние
почвы
03 07.05.17 250 (З) 10 км    ясно 
+15.2 +12.1 82 +21  1012.1  -0.1  753  285           
06 07.05.17 050 (СВ) 10 км    ясно 
+21.6 +12.8 57 +27  1011.8  753  279           
12 27.05.17 090 (В) 10 км    4/4 600 м 
[Cu med, cong]
+26.9 +13.8 44 +34  1009.4  -2.3  751  273           
18 02.06.17 140 (ЮВ) 10 км    6/6 600 м 
[Cu Sc]
+18.8 +11.8 64 +24  1011.3  1.5  752  281    +27.5       
06 05.06.17 110 (В) 10 км    10/10 600 м 
[St]
+21.7 +14.6 64 +29  1019.9  0.8  759  280           
12 05.06.17 110 (В) 10 км    4/4 600 м 
[Cu med, cong]
+28.2 +14 42 +35  1018.3  -0.9  758  274           
09 06.07.17 090 (В) 10 км    6/0 средняя 
[Ac trans]
+31.4 +14.9 37 +40  1011.8  -1.6  753  269           
15 09.07.17 090 (В) 10 км    10/10 600 м 
[St]
+27 +16.8 54 +39  1012.2  1.4  753  273           
15 16.07.17 090 (В) 10 км    3/0 средняя 
[Ac lent]
+33.1 +12.8 29 +38  1010.6  -0.1  752  268           
15 24.07.17 160 (Ю) 10 км    ясно 
+29.4 +18 50 +44  1006.8  749  268           
12 26.07.17 140 (ЮВ) 10 км    ясно 
+35.6 +16.1 31 +46  1004.5  -0.6  748  263           
00 02.08.17 тихо ()   10 км    ясно 
+20.4 +14.4 68 +28  1017.3  0.1  757  281           
09 18.08.17 090 (В) 10 км    3/0 средняя 
[Ac lent]
+31.6 +16.8 41 +43  1010.5  -0.7  752  268           
12 20.08.17 110 (В) 10 км    ясно 
+33.9 +10 23 +35  1012.4  -1.8  753  268           
15 23.08.17 290 (З) 97  0500 м    4/0 
+31.3 +17.6 44 +45  1007.5  0.2  750  267           
06 24.08.17 160 (Ю) 10 км    ясно 
+29.2 +16 45 +39  1015.3  1.1  755  272           
09 24.08.17 140 (ЮВ) 10 км    ясно 
+31.8 +13.4 33 +38  1014.6  -0.6  755  270           
06 28.08.17 340 (С) 10 км    9/0 средняя 
[Ac trans]
+25.5 +20 72 +44  1012.9  -0.1  754  273           
09 28.08.17 050 (СВ) 10 км    ясно 
+29.7 +15.9 43 +40  1010.5  -2.4  752  270           
15 28.08.17 тихо ()   10 км    ясно 
+30.5 +16.7 44 +42  1006.7  -1.4  749  268           
18 28.08.17 110 (В) 10 км    ясно 
+25.1 +19.2 70 +42  1007.3  0.7  749  272    +31.7       
09 01.09.17 270 (З) 10 км    6/0 средняя 
[Ac trans]
+30.9 +20 52 +49  1011.2  -1.6  752  268           
18 01.09.17 140 (ЮВ) 10 км    3/0 средняя 
[Ac lent]
+25.6 +18.9 67 +42  1010.2  1.3  752  272    +34.1       
03 02.09.17 110 (В) 10 км    9/0 средняя 
[Ac trans]
+23.6 +20 80 +42  1010.1  -0.2  751  274           
06 05.09.17 тихо ()   10 км    ясно 
+26.1 +18.7 64 +42  1014.7  0.6  755  273           
Время (UTC), дата Ветер
(°,м/с) 
Видим.   Явления Облачность Т
(°С)
Тd
(°С)
f(%) Тe
(°С)
Pmin
(гПа)
dP
(гПа)
Po
(мм)
O2
(г/м3)
Тmin Tmax R s Состояние
почвы

Для получения пояснительной информации подведите курсор к названию столбца.

ПОГОДА в Беылагане - архив

Всё, что Вы хотите узнать о погоде в Беылагане - удобно и подробно!

Выберите нужную дату (начиная с 1 января 2015* года) и нажмите кнопку "Найти".
Будут отображены архивные сводки погоды по пункту Беылаган, начиная с указанной даты.


Отображать данные в формате CSV (для использования в таблицах Excel)


Внимание! Наш архив погоды предназначен исключительно для личного некоммерческого использования в познавательных целях. Если Вам необходимы официальные справки о состоянии погоды (для производственных, юридических, коммерческих и т.п. целей), обращайтесь в органы Росгидромета.

*Примечание: данная дата относится к архиву по метеостанциям СССР (Россия, СНГ, Балтия).
Архив по метеостанциям Зарубежной Европы и Азии (кроме Китая) хранится 10 дней, по другим регионам земного шара (Китай, Африка, Америка, Австралия, Океания) - 1 день.

Беылаган - район местоположения метеостанции


Название, широта, долгота, высота метеостанции:
Беылаган (АМСГ) 39.8°ш. 47.8°д. 72 м над ур. моря [Азербайджан]

Дополнительная информация

В oтличие oт бoльшинства пoгoдных сайтoв мы публикуем пoдрoбную метеoинфoрмацию в детальнoм прoфессиoнальнoм фoрмате.

Характеристики температуры и влажнoсти вoздуха измеряются на высoте 2 м в тени вдали oт зданий и деревьев.
Скoрoсть ветра измеряется на высoте 10 м (на урoвне рoста челoвека скoрoсть ветра ниже в 1.5-2 раза). Если метеoстанция нахoдится в гoрoде или в лесу, тo скoрoсть ветра занижена на 2-4 м/с пo сравнению с oткрытым местoм. Скoрoсть ветра над акватoриями крупных рек и oзёр, а также на вершинах хoлмoв на 2-5 м/с выше, чем в oбычных услoвиях.
Атмoсфернoе давление в разных тoчках местнoсти мoжет значительнo oтличаться oт давления на метеoстанции, в зависимoсти oт услoвий рельефа (при пoдъёме на 10 м давление пoнижается примернo на 1 мм рт.ст.).